Location: Dealu Mare
(46.0500°N, 22.8167°E)
Time: 09:47:43
(UTC+00:00)

Cosmos 1932 - Pass Details

Date: 15 January 2026
Orbit: 920 x 1009 km, 65.0° (Epoch: 10 February)

Event Time Altitude Azimuth Distance (km) Brightness Sun altitude
Exits shadow 03:50:51 21° 217° (SW) 2,065 5.9 -23.1°
Maximum altitude 03:55:26 86° 305° (NW) 1,001 4.4 -22.3°
Drops below altitude 10° 04:02:00 10° 36° (NE) 2,785 7.2 -21.2°
Sets 04:04:38 0° 37° (NE) 3,744 7.9 -20.7°
